Regional Weather Roundup
Issued by NWS

Home | Current Version | Previous Version | Graphics & Text | Print | Product List | Glossary On
Versions: 1 2 3 4 5 6 7 8 9 10 11 12 13 14 15 16 17 18 19 20 21 22 23 24 25 26 27 28 29 30 31 32 33 34 35 36 37 38 39 40 41 42 43 44 45 46 47 48
000
ASUS45 KBOU 232110
RWRCO

WEATHER ROUNDUP FOR COLORADO
NATIONAL WEATHER SERVICE PUEBLO CO
200 PM MST FRI FEB 23 2018

NOTE: "FAIR" INDICATES FEW OR NO CLOUDS BELOW 12000 FEET WITH NO
SIGNIFICANT WEATHER AND/OR OBSTRUCTIONS TO VISIBILITY.

COZ001>005-013-030-031-232200-
...NORTHWEST COLORADO...

CITY           SKY/WX    TMP DP  RH WIND       PRES   REMARKS
CRAIG          MOSUNNY   33  12  41 SW14      29.85F WCI  23
HAYDEN         PTSUNNY   30  13  49 NW8       29.85F WCI  22
MEEKER         PTSUNNY   32  13  45 SW20      29.84F WCI  20
RABBIT EARS PA NOT AVBL
STEAMBOAT SPGS FAIR      31   9  39 S10       29.83R WCI  22
WALDEN         CLOUDY    27   5  39 SW15      29.82F WCI  15
$$

COZ006>008-011-232200-
...WEST CENTRAL VALLEYS...

CITY           SKY/WX    TMP DP  RH WIND       PRES   REMARKS
GRAND JUNCTION CLOUDY    36  25  64 W13       29.90F
MONTROSE       FLURRIES  33  19  56 N10       29.89F WCI  25
EAGLE          NOT AVBL
RIFLE          LGT SNOW  29  24  82 W8        29.89F WCI  21
DELTA          NOT AVBL
NUCLA          LGT SNOW  28  23  80 NW10      29.95F WCI  19
$$

COZ017>023-064>068-232200-
...SOUTHWEST COLORADO...

CITY           SKY/WX    TMP DP  RH WIND       PRES   REMARKS
DURANGO        PTSUNNY   35  16  45 S14G22    29.92F WCI  26
CORTEZ         PTSUNNY   34  23  64 NW18G25   29.91F WCI  23
PAGOSA SPRINGS CLOUDY    32  10  40 S12       29.92F WCI  23
TELLURIDE      CLOUDY    24   7  49 S12G22    29.84F WCI  12
WOLF CREEK PAS CLOUDY     9   9 100 S20G36    29.85F WCI -11
$$

COZ009-010-012-014-032>034-037-058>063-232200-
...CENTRAL COLORADO...

CITY           SKY/WX    TMP DP  RH WIND       PRES   REMARKS
ASPEN          PTSUNNY   30   5  34 S12G20    29.80F WCI  20
BUENA VISTA    CLOUDY    34   4  28 SE16G28   29.81F WCI  24
COPPER MTN     PTSUNNY   18  -2  41 SE17G24   29.77F WCI   2
BERTHOUD PASS  CLOUDY     9  -2  61 S13G21    29.76F HAZE    WCI  -7
COTTONWOOD PAS CLOUDY    32   1  27 CALM      29.80F
GUNNISON       MOSUNNY   32   7  35 S12       29.82F WCI  23
KREMMLING      MOSUNNY   34  10  37 W6        29.85F WCI  29
LEADVILLE      CLOUDY    19   1  45 S3        29.79F
MONARCH PASS   SNOW      12   9  85 SW41G47   29.85F VSB 1/2 WCI -12
SALIDA         FAIR      38   6  26 S16G25    29.91F
SUNLIGHT       CLOUDY    18  12  79 S9G18     29.81F HAZE    WCI   6
WILKERSON PASS SUNNY     21   3  45 S8G22     29.82F WCI  12
$$

COZ069>075-232200-
...SAN LUIS VALLEY/SANGRE DE CRISTO MOUNTAINS...

CITY           SKY/WX    TMP DP  RH WIND       PRES   REMARKS
ALAMOSA        SUNNY     40   5  23 SW22G32   29.87F
DEL NORTE      FAIR      35   7  30 SW10G24   29.86F WCI  28
LA VETA PASS   SUNNY     32   9  37 S22G38    29.97F WCI  19
SAGUACHE       SUNNY     34   5  29 SW24G31   29.87F WCI  21
$$

COZ035-036-038>040-232200-
...NORTHERN COLORADO FRONT RANGE...

CITY           SKY/WX    TMP DP  RH WIND       PRES   REMARKS
DENVER INTL AP PTSUNNY   34  25  69 NE13      29.91F WCI  25
DMNS CITY PARK NOT AVBL
AURORA         MOSUNNY   33  28  81 N15       29.90F WCI  23
FRONT RANGE AP PTSUNNY   39  28  65 NE12G20   29.91F
ERIE MUNI ARPT FAIR      28  21  72 NE7       30.01F HAZE    WCI  21
BOULDER MUN AP CLOUDY    30  19  64 N6        29.94F WCI  24
CENTENNIAL     PTSUNNY   33  24  69 N17       29.88F WCI  22
BROOMFIELD     PTSUNNY   28  21  74 N9        29.93F WCI  20
LOVELAND       PTSUNNY   27  20  75 E9        29.98F HAZE    WCI  18
LONGMONT       PTSUNNY   31  20  63 NE8       29.98F WCI  24
$$

COZ041-046-047-076>085-087-088-232200-
...PIKES PEAK/PALMER DIVIDE AND SOUTHERN FOOTHILLS...

CITY           SKY/WX    TMP DP  RH WIND       PRES   REMARKS
COLO. SPRINGS  MOSUNNY   38  18  44 S18       29.90F
A. F. ACADEMY  SUNNY     37  12  35 SE13G21   29.87F
SCHRIEVER AFB  NOT AVBL
CHEYENNE MTN   NOT AVBL
ELLICOTT         N/A    N/A N/A N/A S12       29.89F
FALCON         FAIR      38  12  34 SE17G24   29.88F
FORT CARSON    SUNNY     38  17  42 S12       29.89F
LIMON          SUNNY     37  15  40 SE18G26   29.93F
MONUMENT HILL  SUNNY     36  12  38 S13G21    29.87F
CANON CITY     PTSUNNY   39  19  45 E13       29.90F
WALSENBURG     FAIR      45  18  33 N18       29.87F
TRINIDAD       SUNNY     47  16  29 NE12      29.86F
$$

COZ042>045-048>051-090-091-232200-
...NORTHEAST COLORADO...

CITY           SKY/WX    TMP DP  RH WIND       PRES   REMARKS
GREELEY ARPT   PTSUNNY   30  22  72 N5        29.99F HAZE    WCI  25
AKRON          SUNNY     35  20  54 SE15G25   29.98F WCI  25
BURLINGTON     CLOUDY    31  25  78 E9        30.03F WCI  23
WRAY           FAIR      37  19  48 SE14      30.05F
YUMA           NOT AVBL
STERLING       FAIR      37  19  48 E12       30.01F
HOLYOKE        FAIR      37  19  48 E12       30.07F
FORT MORGAN    FAIR      39  17  41 SE16      29.98F
$$

COZ086-089-092>099-232200-
...SOUTHEAST COLORADO...

CITY           SKY/WX    TMP DP  RH WIND       PRES   REMARKS
PUEBLO         SUNNY     36  19  50 SE12      29.94F
LA JUNTA       MOSUNNY   31  23  72 NE13      29.97F WCI  21
LAMAR          CLOUDY    32  23  69 SE12      30.02F WCI  23
SPRINGFIELD      N/A     38  24  57 E15G25    29.97F
$$





USA.gov is the U.S. government's official web portal to all federal, state and local government web resources and services.